Content
SEND FEEDBACK

Daily
Averages
Monthly
Summary
United States of America

NEW CASTLE NORTHWEST, PENNSYLVANIA


Home > North America > United States > Pennsylvania
Elevation: 823 feet     Latitude: 41 01N     Longitude: 080 22W

WEATHER
 
SELECT A DAY
Number of Records: 95,375;   Date Range: 2/10/06 - 8/12/14
 
SHARE

PRINT THIS DATA

[ ← Previous Day ]
WEATHER ALMANAC - JANUARY 31, 2013
[ Next Day → ]
[ °C ]   °F
Weather ElementAverageHighLow
Temperature24.6 °F37.4 °F (12:29 am)18.1 °F (11:56 pm)
Dewpoint18.7 °F33.8 °F (12:29 am)10 °F (11:56 pm)
Humidity78.6 %93 % (1:26 am)59 % (1:11 pm)
Barometer29.66 in29.93 in (10:56 pm)29.29 in (12:29 am)
Wind Speed17 mph26.5 mph (4:56 am)
Wind Gust44.9 mph (1:11 pm)
Weather ElementAverage
Visibility5.7 mi
Wind DirectionWSW (249.2 °)

Weather ElementTotal
Precipitation0.05 in
Heating Degree Days37.3 (Base 65)
Averaged from 77 records on January 31, 2013
WEATHER CONDITIONS BREAKOUT
WIND DIRECTION BREAKOUT
WEATHER BY HOUR - JANUARY 31, 2013
[ °C ]   °F
Local TimeTemperatureDewpointHumidityBarometerVisibilityWind DirectionWind SpeedGust SpeedPrecipitationEventsConditions
12:29 AM37.4 °F33.8 °F87 %29.29 in10.0 miWSW (240°)16.1 mph0.01 inRainLight Rain
12:56 AM36.0 °F32.9 °F89 %29.35 in7.0 miWSW (240°)9.2 mph0.01 inRainLight Rain
1:26 AM33.8 °F32.0 °F93 %29.32 in6.0 miWSW (250°)20.7 mph0.01 inSnowLight Snow
1:39 AM33.8 °F30.2 °F87 %29.33 in10.0 miWSW (240°)18.4 mph0.01 inMostly Cloudy
1:56 AM32.9 °F30.0 °F89 %29.39 in8.0 miWSW (250°)21.9 mph0.01 inSnowLight Snow
2:17 AM33.8 °F28.4 °F81 %29.35 in10.0 miWSW (250°)17.3 mph0.00 inMostly Cloudy
2:33 AM33.8 °F28.4 °F81 %29.35 in10.0 miWSW (250°)21.9 mph33.4 mph0.00 inMostly Cloudy
2:56 AM32.0 °F27.1 °F82 %29.43 in10.0 miWest (260°)23.0 mph34.5 mph0.00 inOvercast
3:09 AM32.0 °F26.6 °F80 %29.39 in10.0 miWest (260°)20.7 mph35.7 mphMostly Cloudy
3:22 AM32.0 °F24.8 °F75 %29.39 in10.0 miWest (260°)19.6 mphOvercast
3:56 AM32.0 °F24.1 °F73 %29.46 in10.0 miWSW (250°)19.6 mph0.00 inOvercast
4:37 AM30.2 °F21.2 °F69 %29.43 in10.0 miWest (270°)18.4 mph35.7 mph0.00 inOvercast
4:56 AM31.1 °F19.0 °F61 %29.49 in10.0 miWSW (250°)26.5 mph36.8 mph0.00 inOvercast
5:40 AM28.4 °F23.0 °F80 %29.46 in2.5 miWest (270°)21.9 mph0.00 inSnowLight Snow
5:43 AM28.4 °F23.0 °F80 %29.47 in1.8 miWest (260°)23.0 mph0.00 inSnowLight Snow
5:56 AM28.0 °F23.0 °F81 %29.54 in10.0 miWest (260°)20.7 mph0.00 inSnowLight Snow
6:30 AM28.4 °F21.2 °F74 %29.50 in10.0 miWest (260°)20.7 mph0.00 inOvercast
6:56 AM28.0 °F21.0 °F75 %29.59 in9.0 miWSW (240°)17.3 mph0.00 inSnowLight Snow
7:06 AM28.4 °F21.2 °F74 %29.54 in3.0 miWSW (250°)17.3 mph29.9 mph0.00 inSnowLight Snow
7:13 AM26.6 °F21.2 °F80 %29.54 in2.5 miWest (260°)21.9 mph35.7 mph0.00 inSnowLight Snow
7:21 AM26.6 °F21.2 °F80 %29.55 in9.0 miWSW (240°)21.9 mph0.00 inSnowLight Snow
7:43 AM26.6 °F21.2 °F80 %29.56 in2.0 miWest (260°)17.3 mph0.00 inSnowLight Snow
7:56 AM25.2 °F21.0 °F84 %29.64 in1.2 miWSW (250°)13.8 mph0.00 inSnowLight Snow
7:59 AM24.8 °F21.2 °F86 %29.58 in2.5 miWSW (240°)13.8 mph0.00 inSnowLight Snow
8:06 AM26.6 °F19.4 °F74 %29.59 in10.0 miWSW (240°)16.1 mph27.6 mph0.00 inSnowLight Snow
8:30 AM24.8 °F17.6 °F74 %29.60 in10.0 miWSW (240°)19.6 mph0.00 inOvercast
8:56 AM25.2 °F15.1 °F66 %29.69 in8.0 miWSW (240°)24.2 mph0.00 inSnowLight Snow
9:03 AM24.8 °F15.8 °F69 %29.63 in3.0 miWSW (240°)20.7 mph36.8 mph0.00 inSnowLight Snow
9:07 AM24.8 °F17.6 °F74 %29.63 in2.5 miWSW (240°)21.9 mph36.8 mph0.00 inSnowLight Snow
9:14 AM24.8 °F17.6 °F74 %29.64 in1.5 miWest (260°)19.6 mph28.8 mph0.00 inSnowLight Snow
9:16 AM24.8 °F17.6 °F74 %29.64 in0.8 miWSW (250°)24.2 mph28.8 mph0.00 inSnowLight Snow
9:19 AM23.0 °F17.6 °F80 %29.64 in0.5 miWSW (240°)20.7 mph28.8 mph0.00 inSnowSnow
9:26 AM21.2 °F19.4 °F93 %29.64 in0.2 miWSW (250°)21.9 mph0.00 inFog-SnowLight Snow
9:33 AM21.2 °F19.4 °F93 %29.64 in0.5 miWSW (250°)18.4 mph28.8 mph0.00 inFog-SnowLight Snow
9:36 AM21.2 °F19.4 °F93 %29.65 in0.8 miWSW (250°)13.8 mph28.8 mph0.00 inSnowLight Snow
9:38 AM21.2 °F19.4 °F93 %29.65 in1.0 miWSW (250°)15.0 mph28.8 mph0.00 inSnowLight Snow
9:40 AM23.0 °F19.4 °F86 %29.65 in1.5 miWSW (250°)15.0 mph28.8 mph0.00 inSnowLight Snow
9:56 AM23.0 °F18.1 °F82 %29.72 in1.2 miWSW (250°)17.3 mph0.00 inSnowLight Snow
9:59 AM23.0 °F17.6 °F80 %29.66 in1.5 miWest (260°)17.3 mph0.00 inSnowLight Snow
10:03 AM23.0 °F17.6 °F80 %29.66 in3.0 miWSW (250°)19.6 mph31.1 mph0.00 inSnowLight Snow
10:56 AM23.0 °F16.2 °F75 %29.75 in5.0 miWest (260°)18.4 mph0.00 inSnowLight Snow
11:26 AM23.0 °F17.6 °F80 %29.69 in2.0 miWSW (250°)13.8 mph0.00 inSnowLight Snow
11:42 AM23.0 °F17.6 °F80 %29.68 in7.0 miWSW (250°)15.0 mph0.00 inSnowLight Snow
11:56 AM23.0 °F17.1 °F78 %29.76 in7.0 miWSW (240°)10.4 mph0.00 inSnowLight Snow
12:16 PM24.8 °F17.6 °F74 %29.68 in4.0 miWSW (240°)16.1 mph0.00 inSnowLight Snow
12:32 PM24.8 °F17.6 °F74 %29.68 in1.0 miWSW (240°)25.3 mph35.7 mph0.00 inSnowLight Snow
12:34 PM24.8 °F17.6 °F74 %29.68 in0.5 miWSW (250°)21.9 mph35.7 mph0.00 inSnowSnow
12:44 PM21.2 °F17.6 °F86 %29.69 in0.2 miWSW (250°)24.2 mph38.0 mph0.00 inFog-SnowLight Snow
12:56 PM21.0 °F17.1 °F85 %29.78 in1.8 miWSW (240°)18.4 mph28.8 mph0.00 inSnowLight Snow
12:58 PM21.2 °F15.8 °F80 %29.70 in3.0 miWSW (240°)24.2 mph38.0 mph0.00 inSnowLight Snow
1:11 PM23.0 °F10.4 °F59 %29.71 in7.0 miWSW (240°)21.9 mph44.9 mph0.00 inMostly Cloudy
1:56 PM22.1 °F11.1 °F63 %29.80 in10.0 miWSW (240°)26.5 mph0.00 inSnowLight Snow
2:56 PM21.0 °F14.0 °F74 %29.83 in4.0 miWSW (250°)23.0 mph36.8 mph0.00 inSnowLight Snow
3:10 PM21.2 °F12.2 °F68 %29.75 in8.0 miWSW (250°)19.6 mph26.5 mph0.00 inSnowLight Snow
3:18 PM21.2 °F12.2 °F68 %29.75 in10.0 miWest (260°)17.3 mph0.00 inSnowLight Snow
3:56 PM22.1 °F13.1 °F68 %29.85 in10.0 miWSW (240°)11.5 mph0.00 inSnowLight Snow
4:56 PM22.1 °F14.0 °F71 %29.86 in10.0 miWSW (250°)17.3 mph0.00 inSnowLight Snow
5:36 PM21.2 °F15.8 °F80 %29.78 in2.5 miWSW (240°)9.2 mph0.00 inSnowLight Snow
5:39 PM21.2 °F15.8 °F80 %29.78 in1.5 miWSW (240°)8.1 mph0.00 inSnowLight Snow
5:42 PM21.2 °F15.8 °F80 %29.78 in1.0 miWSW (240°)8.1 mph0.00 inSnowLight Snow
5:47 PM21.2 °F17.6 °F86 %29.78 in0.8 miSW (230°)12.7 mph0.00 inSnowLight Snow
5:56 PM21.0 °F17.1 °F85 %29.87 in1.0 miWSW (240°)10.4 mph0.00 inSnowLight Snow
6:03 PM21.2 °F17.6 °F86 %29.79 in1.0 miSW (230°)10.4 mph0.00 inSnowLight Snow
6:23 PM19.4 °F17.6 °F93 %29.79 in1.5 miWSW (240°)8.1 mph0.00 inSnowLight Snow
6:35 PM19.4 °F15.8 °F86 %29.79 in10.0 miWSW (240°)8.1 mph0.00 inScattered Clouds
6:56 PM20.1 °F16.2 °F85 %29.88 in10.0 miWSW (240°)9.2 mph0.00 inPartly Cloudy
7:56 PM21.0 °F15.1 °F78 %29.90 in10.0 miWSW (240°)10.4 mph0.00 inMostly Cloudy
8:56 PM22.1 °F14.0 °F71 %29.90 in10.0 miWSW (250°)11.5 mph0.00 inSnowLight Snow
9:20 PM21.2 °F15.8 °F80 %29.82 in4.0 miWSW (240°)11.5 mph0.00 inSnowLight Snow
9:47 PM19.4 °F15.8 °F86 %29.83 in10.0 miWSW (240°)13.8 mph0.00 inOvercast
9:56 PM20.1 °F14.0 °F77 %29.92 in10.0 miWest (260°)12.7 mph0.00 inOvercast
10:08 PM19.4 °F14.0 °F80 %29.83 in10.0 miWSW (250°)11.5 mphOvercast
10:29 PM19.4 °F12.2 °F74 %29.83 in10.0 miWest (260°)9.2 mph0.00 inOvercast
10:56 PM20.1 °F12.0 °F71 %29.93 in10.0 miWSW (250°)13.8 mph0.00 inScattered Clouds
11:40 PM19.4 °F12.2 °F74 %29.84 in4.0 miWest (280°)10.4 mph0.00 inSnowLight Snow
11:47 PM19.4 °F10.4 °F68 %29.84 in10.0 miWest (280°)11.5 mph0.00 inOvercast
11:56 PM18.1 °F10.0 °F71 %29.93 in10.0 miWNW (290°)13.8 mph0.00 inMostly Cloudy
Hourly data recorded from KUCP, located miles away from New Castle Northwest, Pennsylvania







STORIES FROM OUR PARTNERS